When you browse on this site, cookies collect data to enhance your experience and personalize the content and advertising you see.
Visit our Privacy Policy to learn more. By continuing to use the site, you agree to this use of cookies and data.
  • In Germany
  • List of Countries
  • For 7 days
  • Water Temperature
  • Satellite Maps
  • Weather Map
  • Weather Widgets
  • user-avatar
    Login

    Hourly Weather Boma

    Today, 20 January, Sunday

    Time Temperature Precipitation Wind Pressure Humidity
    00:00 +21°C° 0 mm 0 mps 701 mmHg 45%
    01:00 +20°C° 0 mm 0 mps 701 mmHg 48%
    02:00 +19°C° 0 mm 0 mps 701 mmHg 51%
    03:00 +19°C° 0 mm 0 mps 701 mmHg 55%
    04:00 +18°C° 0 mm 0 mps 701 mmHg 58%
    05:00 +18°C° 0 mm 0 mps 701 mmHg 63%
    06:00 +18°C° 0 mm 0 mps 701 mmHg 68%
    07:00 +20°C° 0 mm 0 mps 701 mmHg 86%
    08:00 +24°C° 0 mm 1 mps 702 mmHg 79%
    09:00 +25°C° 0 mm 1 mps 702 mmHg 73%
    10:00 +27°C° 0 mm 1 mps 702 mmHg 66%
    11:00 +31°C° 0 mm 1 mps 702 mmHg 51%
    12:00 +34°C° 0 mm 0 mps 702 mmHg 36%
    13:00 +37°C° 0 mm 0 mps 702 mmHg 23%
    14:00 +36°C° 0 mm 0 mps 702 mmHg 22%
    15:00 +37°C° 0 mm 1 mps 701 mmHg 20%
    16:00 +36°C° 0 mm 1 mps 700 mmHg 18%
    17:00 +33°C° 0 mm 1 mps 700 mmHg 22%
    18:00 +28°C° 0 mm 0 mps 700 mmHg 27%
    19:00 +25°C° 0 mm 0 mps 700 mmHg 31%
    20:00 +24°C° 0 mm 0 mps 700 mmHg 31%
    21:00 +24°C° 0 mm 0 mps 700 mmHg 31%
    22:00 +25°C° 0 mm 1 mps 701 mmHg 31%
    23:00 +22°C° 0 mm 0 mps 701 mmHg 31%

    Tomorrow, 21 January, Monday

    Time Temperature Precipitation Wind Pressure Humidity
    00:00 +21°C° 0 mm 0 mps 701 mmHg 31%
    01:00 +20°C° 0 mm 0 mps 701 mmHg 30%
    02:00 +19°C° 0 mm 0 mps 700 mmHg 32%
    03:00 +18°C° 0 mm 0 mps 700 mmHg 33%
    04:00 +17°C° 0 mm 0 mps 700 mmHg 34%
    05:00 +17°C° 0 mm 0 mps 700 mmHg 40%
    06:00 +17°C° 0 mm 0 mps 701 mmHg 47%
    07:00 +17°C° 0 mm 0 mps 701 mmHg 54%
    08:00 +22°C° 0 mm 0 mps 702 mmHg 45%
    09:00 +26°C° 0 mm 0 mps 703 mmHg 37%
    10:00 +31°C° 0 mm 0 mps 703 mmHg 28%
    11:00 +35°C° 0 mm 1 mps 703 mmHg 23%
    12:00 +37°C° 0 mm 1 mps 702 mmHg 18%
    13:00 +40°C° 0 mm 1 mps 702 mmHg 12%
    14:00 +39°C° 0 mm 1 mps 701 mmHg 12%
    15:00 +39°C° 0 mm 1 mps 700 mmHg 12%
    16:00 +39°C° 0 mm 1 mps 699 mmHg 12%
    17:00 +34°C° 0 mm 1 mps 699 mmHg 15%
    18:00 +31°C° 0 mm 1 mps 699 mmHg 18%
    19:00 +26°C° 0 mm 0 mps 698 mmHg 22%
    20:00 +25°C° 0 mm 0 mps 699 mmHg 23%
    21:00 +24°C° 0 mm 0 mps 700 mmHg 24%
    22:00 +23°C° 0 mm 0 mps 700 mmHg 25%
    23:00 +22°C° 0 mm 0 mps 700 mmHg 26%

    Day after tomorrow, 22 January, Tuesday

    Time Temperature Precipitation Wind Pressure Humidity
    00:00 +21°C° 0 mm 0 mps 700 mmHg 27%
    01:00 +20°C° 0 mm 0 mps 700 mmHg 29%
    02:00 +19°C° 0 mm 0 mps 699 mmHg 33%
    03:00 +19°C° 0 mm 0 mps 699 mmHg 38%
    04:00 +18°C° 0 mm 0 mps 699 mmHg 43%
    05:00 +18°C° 0 mm 0 mps 699 mmHg 52%
    06:00 +18°C° 0 mm 0 mps 700 mmHg 61%
    07:00 +18°C° 0 mm 0 mps 700 mmHg 69%
    08:00 +22°C° 0 mm 0 mps 701 mmHg 60%
    09:00 +26°C° 0 mm 0 mps 702 mmHg 50%
    10:00 +32°C° 0 mm 1 mps 703 mmHg 40%
    11:00 +35°C° 0 mm 1 mps 702 mmHg 31%
    12:00 +37°C° 0 mm 1 mps 701 mmHg 22%
    13:00 +41°C° 0 mm 1 mps 701 mmHg 14%
    14:00 +40°C° 0 mm 1 mps 700 mmHg 13%
    15:00 +40°C° 0 mm 1 mps 699 mmHg 12%
    16:00 +39°C° 0 mm 1 mps 698 mmHg 12%
    17:00 +35°C° 0 mm 1 mps 698 mmHg 15%
    18:00 +29°C° 0 mm 0 mps 698 mmHg 19%
    19:00 +26°C° 0 mm 0 mps 698 mmHg 23%
    20:00 +25°C° 0 mm 0 mps 698 mmHg 24%
    21:00 +24°C° 0 mm 0 mps 699 mmHg 25%
    22:00 +25°C° 0 mm 1 mps 699 mmHg 26%
    23:00 +25°C° 0 mm 1 mps 699 mmHg 27%

    23 January, Wednesday

    Time Temperature Precipitation Wind Pressure Humidity
    00:00 +24°C° 0 mm 1 mps 699 mmHg 28%
    01:00 +23°C° 0 mm 1 mps 699 mmHg 29%
    02:00 +22°C° 0 mm 1 mps 699 mmHg 40%
    03:00 +21°C° 0 mm 1 mps 699 mmHg 52%
    04:00 +21°C° 0 mm 1 mps 699 mmHg 64%
    05:00 +21°C° 0 mm 1 mps 699 mmHg 72%
    06:00 +22°C° 0 mm 1 mps 700 mmHg 80%
    07:00 +23°C° 0 mm 1 mps 700 mmHg 88%
    08:00 +26°C° 0 mm 1 mps 701 mmHg 76%
    09:00 +28°C° 0 mm 1 mps 701 mmHg 64%
    10:00 +30°C° 0 mm 1 mps 702 mmHg 52%
    11:00 +34°C° 0 mm 1 mps 701 mmHg 41%
    12:00 +37°C° 0 mm 1 mps 701 mmHg 29%
    13:00 +41°C° 0 mm 1 mps 700 mmHg 18%
    14:00 +41°C° 0 mm 1 mps 699 mmHg 17%
    15:00 +37°C° 0 mm 0 mps 699 mmHg 16%
    16:00 +37°C° 0 mm 0 mps 698 mmHg 15%
    17:00 +34°C° 0 mm 0 mps 698 mmHg 19%
    18:00 +30°C° 0 mm 0 mps 698 mmHg 24%
    19:00 +27°C° 0 mm 0 mps 698 mmHg 28%
    20:00 +26°C° 0 mm 0 mps 698 mmHg 30%
    21:00 +27°C° 0 mm 1 mps 699 mmHg 33%
    22:00 +26°C° 0 mm 1 mps 699 mmHg 35%
    23:00 +25°C° 0 mm 1 mps 699 mmHg 42%

    24 January, Thursday

    Time Temperature Precipitation Wind Pressure Humidity
    00:00 +24°C° 0 mm 1 mps 699 mmHg 50%
    01:00 +21°C° 0 mm 0 mps 699 mmHg 57%
    02:00 +21°C° 0 mm 0 mps 699 mmHg 65%
    03:00 +23°C° 0 mm 1 mps 698 mmHg 74%
    04:00 +23°C° 0 mm 1 mps 698 mmHg 82%
    05:00 +23°C° 0 mm 1 mps 699 mmHg 87%
    06:00 +22°C° 0 mm 1 mps 699 mmHg 91%
    07:00 +22°C° 0 mm 1 mps 700 mmHg 95%
    08:00 +25°C° 0 mm 1 mps 700 mmHg 81%
    09:00 +29°C° 0 mm 1 mps 701 mmHg 66%
    10:00 +32°C° 0 mm 1 mps 701 mmHg 52%
    11:00 +35°C° 0 mm 1 mps 701 mmHg 41%
    12:00 +39°C° 0 mm 1 mps 700 mmHg 31%
    13:00 +39°C° 0 mm 0 mps 700 mmHg 21%
    14:00 +38°C° 0 mm 0 mps 699 mmHg 20%
    15:00 +40°C° 0 mm 1 mps 698 mmHg 19%
    16:00 +40°C° 0 mm 1 mps 697 mmHg 18%
    17:00 +35°C° 0 mm 1 mps 697 mmHg 23%
    18:00 +30°C° 0 mm 0 mps 697 mmHg 28%
    19:00 +27°C° 0 mm 0 mps 697 mmHg 32%
    20:00 +26°C° 0 mm 0 mps 698 mmHg 37%
    21:00 +27°C° 0 mm 1 mps 698 mmHg 41%
    22:00 +26°C° 0 mm 1 mps 699 mmHg 45%
    23:00 +25°C° 0.3 mm 1 mps 699 mmHg 53%

    25 January, Friday

    Time Temperature Precipitation Wind Pressure Humidity
    00:00 +24°C° 0.3 mm 1 mps 699 mmHg 62%
    01:00 +21°C° 0.3 mm 0 mps 699 mmHg 70%
    02:00 +21°C° 0.2 mm 0 mps 699 mmHg 77%
    03:00 +22°C° 0.2 mm 1 mps 699 mmHg 84%
    04:00 +22°C° 0.2 mm 1 mps 699 mmHg 91%
    05:00 +20°C° 0 mm 0 mps 699 mmHg 92%
    06:00 +20°C° 0 mm 0 mps 700 mmHg 94%
    07:00 +20°C° 0 mm 0 mps 700 mmHg 95%
    08:00 +24°C° 0 mm 0 mps 701 mmHg 78%
    09:00 +29°C° 0 mm 1 mps 701 mmHg 61%
    10:00 +33°C° 0 mm 1 mps 702 mmHg 44%
    11:00 +35°C° 0 mm 1 mps 701 mmHg 34%
    12:00 +37°C° 0 mm 1 mps 701 mmHg 25%
    13:00 +39°C° 0 mm 1 mps 700 mmHg 16%
    14:00 +39°C° 0 mm 1 mps 699 mmHg 15%
    15:00 +39°C° 0 mm 1 mps 698 mmHg 14%
    16:00 +39°C° 0 mm 1 mps 698 mmHg 12%
    17:00 +35°C° 0 mm 1 mps 698 mmHg 16%
    18:00 +30°C° 0 mm 0 mps 698 mmHg 20%
    19:00 +26°C° 0 mm 0 mps 698 mmHg 23%
    20:00 +25°C° 0 mm 0 mps 698 mmHg 23%
    21:00 +27°C° 0 mm 1 mps 699 mmHg 24%
    22:00 +26°C° 0 mm 1 mps 699 mmHg 24%
    23:00 +25°C° 0 mm 1 mps 699 mmHg 24%
    Show more